KINEIS-4D

Last updated on Thu Sep 24 2026 00:03:12 GMT+0000 (Coordinated Universal Time)

1 63302U 25056C 26266.60601447 .00001037 00000+0 17140-3 0 9998 2 63302 97.9123 28.0301 0003104 47.2752 312.8717 14.72371034 81613
UTC large
Height (km)
Speed (km/s)
/
Latitude / Longitude
Inclination (degrees)
Orbital Period (minutes)
Azimuth
Elevation
Range (km)
Doppler Factor

Next 0 passes for location: London (51.5072 / 0.1276)

No passes found over London.
KINEIS-4D